EN

Hourly Weather Abaetetuba

Today, 23 June, Wednesday

Time Temperature Precipitation Wind Pressure Humidity
00:00 +24°C° 0.6 mm 2 mps 760 mmHg 98%
01:00 +24°C° 0.4 mm 2 mps 760 mmHg 97%
02:00 +24°C° 0.4 mm 2 mps 759 mmHg 97%
03:00 +24°C° 0 mm 2 mps 759 mmHg 97%
04:00 +24°C° 0 mm 1 mps 759 mmHg 97%
05:00 +24°C° 0 mm 1 mps 759 mmHg 97%
06:00 +23°C° 0 mm 1 mps 759 mmHg 97%
07:00 +25°C° 0 mm 1 mps 759 mmHg 92%
08:00 +26°C° 0 mm 1 mps 760 mmHg 87%
09:00 +28°C° 0 mm 1 mps 760 mmHg 82%
10:00 +30°C° 0 mm 1 mps 760 mmHg 72%
11:00 +32°C° 0 mm 2 mps 759 mmHg 62%
12:00 +35°C° 0 mm 2 mps 759 mmHg 52%
13:00 +32°C° 0.1 mm 2 mps 759 mmHg 60%
14:00 +31°C° 0.1 mm 2 mps 758 mmHg 67%
15:00 +29°C° 0.1 mm 2 mps 757 mmHg 75%
16:00 +29°C° 0.1 mm 2 mps 757 mmHg 78%
17:00 +28°C° 0.1 mm 2 mps 757 mmHg 81%
18:00 +27°C° 0.1 mm 2 mps 758 mmHg 85%
19:00 +27°C° 0.1 mm 3 mps 758 mmHg 86%
20:00 +26°C° 0.1 mm 3 mps 759 mmHg 88%
21:00 +26°C° 0.1 mm 3 mps 760 mmHg 89%
22:00 +25°C° 0.7 mm 3 mps 760 mmHg 92%
23:00 +25°C° 0.7 mm 3 mps 760 mmHg 94%

Tomorrow, 24 June, Thursday

Time Temperature Precipitation Wind Pressure Humidity
00:00 +24°C° 0.7 mm 3 mps 760 mmHg 97%
01:00 +24°C° 0.4 mm 2 mps 760 mmHg 97%
02:00 +24°C° 0.4 mm 2 mps 759 mmHg 97%
03:00 +24°C° 0.4 mm 2 mps 759 mmHg 97%
04:00 +24°C° 0.3 mm 2 mps 759 mmHg 97%
05:00 +24°C° 0.3 mm 1 mps 759 mmHg 97%
06:00 +24°C° 0.3 mm 1 mps 759 mmHg 97%
07:00 +25°C° 0 mm 1 mps 759 mmHg 91%
08:00 +27°C° 0 mm 2 mps 760 mmHg 86%
09:00 +28°C° 0 mm 2 mps 760 mmHg 80%
10:00 +29°C° 0.1 mm 2 mps 760 mmHg 75%
11:00 +31°C° 0.1 mm 2 mps 759 mmHg 71%
12:00 +32°C° 0.1 mm 2 mps 759 mmHg 66%
13:00 +31°C° 0.5 mm 2 mps 759 mmHg 67%
14:00 +31°C° 0.5 mm 2 mps 758 mmHg 69%
15:00 +31°C° 0.5 mm 2 mps 757 mmHg 71%
16:00 +29°C° 0.5 mm 2 mps 757 mmHg 78%
17:00 +28°C° 0.5 mm 2 mps 758 mmHg 86%
18:00 +26°C° 0.5 mm 2 mps 758 mmHg 94%
19:00 +26°C° 0.1 mm 2 mps 758 mmHg 95%
20:00 +25°C° 0.1 mm 2 mps 759 mmHg 96%
21:00 +25°C° 0.1 mm 2 mps 759 mmHg 96%
22:00 +25°C° 0.1 mm 2 mps 759 mmHg 96%
23:00 +25°C° 0.1 mm 2 mps 759 mmHg 96%

Day after tomorrow, 25 June, Friday

Time Temperature Precipitation Wind Pressure Humidity
00:00 +24°C° 0.1 mm 2 mps 759 mmHg 96%
01:00 +24°C° 0 mm 2 mps 759 mmHg 96%
02:00 +24°C° 0 mm 2 mps 759 mmHg 96%
03:00 +24°C° 0 mm 2 mps 758 mmHg 97%
04:00 +24°C° 0 mm 2 mps 758 mmHg 96%
05:00 +24°C° 0 mm 2 mps 758 mmHg 96%
06:00 +24°C° 0 mm 1 mps 759 mmHg 95%
07:00 +25°C° 0 mm 2 mps 759 mmHg 93%
08:00 +26°C° 0 mm 2 mps 759 mmHg 90%
09:00 +26°C° 0 mm 2 mps 760 mmHg 87%
10:00 +29°C° 0 mm 2 mps 760 mmHg 75%
11:00 +31°C° 0 mm 2 mps 759 mmHg 63%
12:00 +35°C° 0 mm 2 mps 759 mmHg 51%
13:00 +32°C° 0.2 mm 2 mps 758 mmHg 58%
14:00 +31°C° 0.2 mm 2 mps 758 mmHg 64%
15:00 +30°C° 0.2 mm 2 mps 757 mmHg 71%
16:00 +29°C° 0.3 mm 2 mps 757 mmHg 78%
17:00 +28°C° 0.3 mm 2 mps 758 mmHg 85%
18:00 +26°C° 0.3 mm 2 mps 758 mmHg 91%
19:00 +26°C° 0.3 mm 2 mps 758 mmHg 93%
20:00 +25°C° 0.3 mm 2 mps 759 mmHg 94%
21:00 +25°C° 0.3 mm 2 mps 759 mmHg 96%
22:00 +25°C° 0 mm 2 mps 759 mmHg 96%
23:00 +24°C° 0 mm 2 mps 759 mmHg 96%

26 June, Saturday

Time Temperature Precipitation Wind Pressure Humidity
00:00 +24°C° 0 mm 2 mps 759 mmHg 96%
01:00 +24°C° 0 mm 2 mps 758 mmHg 96%
02:00 +24°C° 0 mm 2 mps 758 mmHg 96%
03:00 +24°C° 0 mm 2 mps 757 mmHg 96%
04:00 +24°C° 0 mm 2 mps 757 mmHg 97%
05:00 +24°C° 0 mm 2 mps 757 mmHg 97%
06:00 +24°C° 0 mm 2 mps 757 mmHg 97%
07:00 +25°C° 0 mm 2 mps 758 mmHg 91%
08:00 +27°C° 0 mm 2 mps 759 mmHg 84%
09:00 +29°C° 0 mm 3 mps 759 mmHg 78%
10:00 +30°C° 0 mm 3 mps 759 mmHg 71%
11:00 +33°C° 0 mm 3 mps 759 mmHg 64%
12:00 +34°C° 0 mm 3 mps 758 mmHg 57%
13:00 +31°C° 0.7 mm 3 mps 758 mmHg 66%
14:00 +30°C° 0.7 mm 3 mps 758 mmHg 75%
15:00 +28°C° 0.7 mm 3 mps 757 mmHg 84%
16:00 +28°C° 1 mm 2 mps 757 mmHg 88%
17:00 +27°C° 1 mm 2 mps 757 mmHg 91%
18:00 +26°C° 1 mm 2 mps 758 mmHg 95%
19:00 +26°C° 1.2 mm 2 mps 758 mmHg 95%
20:00 +25°C° 1.2 mm 2 mps 759 mmHg 96%
21:00 +25°C° 1.2 mm 2 mps 759 mmHg 97%
22:00 +24°C° 0.2 mm 2 mps 759 mmHg 97%
23:00 +24°C° 0.2 mm 2 mps 759 mmHg 97%

27 June, Sunday

Time Temperature Precipitation Wind Pressure Humidity
00:00 +24°C° 0.2 mm 2 mps 759 mmHg 97%
01:00 +24°C° 0.2 mm 2 mps 759 mmHg 97%
02:00 +24°C° 0.2 mm 2 mps 758 mmHg 97%
03:00 +24°C° 0.2 mm 2 mps 758 mmHg 97%
04:00 +24°C° 0 mm 2 mps 758 mmHg 97%
05:00 +24°C° 0 mm 2 mps 758 mmHg 97%
06:00 +24°C° 0 mm 2 mps 758 mmHg 97%
07:00 +25°C° 0 mm 2 mps 759 mmHg 93%
08:00 +26°C° 0 mm 2 mps 759 mmHg 89%
09:00 +27°C° 0 mm 2 mps 759 mmHg 86%
10:00 +28°C° 0.3 mm 2 mps 759 mmHg 79%
11:00 +30°C° 0.3 mm 2 mps 759 mmHg 73%
12:00 +31°C° 0.3 mm 2 mps 759 mmHg 66%
13:00 +30°C° 0.3 mm 2 mps 759 mmHg 68%
14:00 +30°C° 0.3 mm 2 mps 758 mmHg 71%
15:00 +30°C° 0.3 mm 2 mps 758 mmHg 73%
16:00 +29°C° 2 mm 2 mps 758 mmHg 80%
17:00 +27°C° 2 mm 2 mps 758 mmHg 88%
18:00 +26°C° 2 mm 1 mps 758 mmHg 95%
19:00 +25°C° 1.1 mm 1 mps 759 mmHg 95%
20:00 +25°C° 1.1 mm 1 mps 759 mmHg 96%
21:00 +25°C° 1.1 mm 1 mps 760 mmHg 96%
22:00 +25°C° 0.5 mm 1 mps 760 mmHg 96%
23:00 +24°C° 0.5 mm 1 mps 760 mmHg 97%

28 June, Monday

Time Temperature Precipitation Wind Pressure Humidity
00:00 +24°C° 0.5 mm 1 mps 760 mmHg 97%
01:00 +24°C° 0.2 mm 1 mps 760 mmHg 97%
02:00 +24°C° 0.2 mm 1 mps 759 mmHg 97%
03:00 +24°C° 0.2 mm 1 mps 759 mmHg 97%
04:00 +24°C° 0.1 mm 1 mps 759 mmHg 97%
05:00 +24°C° 0.1 mm 1 mps 759 mmHg 97%
06:00 +24°C° 0.1 mm 1 mps 760 mmHg 97%
07:00 +25°C° 0 mm 1 mps 760 mmHg 96%
08:00 +25°C° 0 mm 1 mps 760 mmHg 96%
09:00 +26°C° 0 mm 1 mps 761 mmHg 95%
10:00 +27°C° 0 mm 1 mps 760 mmHg 86%
11:00 +29°C° 0 mm 1 mps 760 mmHg 77%
12:00 +31°C° 0 mm 1 mps 760 mmHg 68%
13:00 +30°C° 0.6 mm 1 mps 759 mmHg 73%
14:00 +30°C° 0.6 mm 1 mps 759 mmHg 77%
15:00 +30°C° 0.6 mm 1 mps 759 mmHg 82%
16:00 +29°C° 0.9 mm 1 mps 759 mmHg 86%
17:00 +27°C° 0.9 mm 1 mps 759 mmHg 90%
18:00 +26°C° 0.9 mm 1 mps 759 mmHg 94%
19:00 +26°C° 0.3 mm 1 mps 759 mmHg 94%
20:00 +25°C° 0.3 mm 1 mps 760 mmHg 95%
21:00 +25°C° 0.3 mm 2 mps 761 mmHg 96%
22:00 +25°C° 0.1 mm 2 mps 760 mmHg 96%
23:00 +24°C° 0.1 mm 2 mps 760 mmHg 97%
Show more